Location: Fort Frances
(48.6170°N, 93.4170°W)
Time: 10:56:03
(UTC-06:00)

ISS - All Passes

Search period start: 14 February 2016 00:00
Search period end: 24 February 2016 00:00
Orbit: 398 x 407 km, 51.6° (Epoch: 14 February)

Date Brightness Start Highest point End Pass type
(mag) Time Alt. Az. Time Alt. Az. Time Alt. Az.
14 Feb - 14:07:41 10° SSW 14:10:16 22° SE 14:12:51 10° E daylight
14 Feb - 15:43:09 10° WSW 15:46:25 84° NNW 15:49:41 10° ENE daylight
14 Feb - 17:19:55 10° WNW 17:23:05 46° N 17:26:15 10° ENE daylight
14 Feb - 18:56:29 10° WNW 18:59:46 79° NNE 19:03:00 10° ESE visible
14 Feb - 20:33:16 10° W 20:35:57 24° SW 20:38:37 10° SSE visible
15 Feb - 13:16:03 10° SSE 13:17:42 13° SE 13:19:21 10° ESE daylight
15 Feb - 14:50:25 10° SW 14:53:39 66° SSE 14:56:53 10° ENE daylight
15 Feb - 16:27:01 10° W 16:30:11 49° N 16:33:23 10° ENE daylight
15 Feb - 18:03:41 10° WNW 18:06:55 60° NNE 18:10:08 10° E visible
15 Feb - 19:40:14 10° WNW 19:43:18 39° SSW 19:46:20 10° SE visible
16 Feb - 13:57:49 10° SW 14:00:55 41° SSE 14:04:00 10° ENE daylight
16 Feb - 15:34:05 10° W 15:37:18 58° NNW 15:40:32 10° ENE daylight
16 Feb - 17:10:51 10° WNW 17:14:02 50° N 17:17:13 10° E daylight
16 Feb - 18:47:21 10° WNW 18:50:34 63° SSW 18:53:46 10° SE visible
16 Feb - 20:25:01 10° WSW 20:26:29 12° SW 20:27:56 10° SSW visible
17 Feb - 13:05:29 10° SSW 13:08:14 25° SE 13:10:59 10° E daylight
17 Feb - 14:41:11 10° WSW 14:44:27 77° NNW 14:47:42 10° ENE daylight
17 Feb - 16:17:57 10° WNW 16:21:07 46° N 16:24:17 10° ENE daylight
17 Feb - 17:54:30 10° WNW 17:57:46 87° NNE 18:01:01 10° ESE daylight
17 Feb - 19:31:23 10° W 19:33:54 21° SW 19:36:24 10° SSE visible
18 Feb - 12:13:35 10° S 12:15:36 15° SE 12:17:38 10° E daylight
18 Feb - 13:48:21 10° WSW 13:51:37 74° SSE 13:54:51 10° ENE daylight
18 Feb - 15:25:01 10° W 15:28:11 48° N 15:31:22 10° ENE daylight
18 Feb - 17:01:40 10° WNW 17:04:54 64° NNE 17:08:08 10° E daylight
18 Feb - 18:38:15 10° W 18:41:14 33° SW 18:44:11 10° SSE visible
19 Feb - 12:55:40 10° SW 12:58:49 47° SSE 13:01:58 10° ENE daylight
19 Feb - 14:32:02 10° W 14:35:16 55° N 14:38:29 10° ENE daylight
19 Feb - 16:08:48 10° WNW 16:12:00 52° N 16:15:11 10° E daylight
19 Feb - 17:45:17 10° WNW 17:48:29 55° SSW 17:51:39 10° SE daylight
19 Feb - 19:23:34 10° WSW 19:24:20 11° SW 19:25:04 10° SSW visible
20 Feb - 12:03:12 10° SSW 12:06:05 29° SE 12:08:58 10° E daylight
20 Feb - 13:39:05 10° WSW 13:42:21 70° NNW 13:45:36 10° ENE daylight
20 Feb - 15:15:52 10° WNW 15:19:03 47° N 15:22:12 10° E daylight
20 Feb - 16:52:24 10° WNW 16:55:40 84° SSW 16:58:55 10° ESE daylight
20 Feb - 18:29:25 10° W 18:31:43 18° SW 18:34:01 10° S visible
21 Feb - 11:11:06 10° S 11:13:24 18° SE 11:15:42 10° E daylight
21 Feb - 12:46:11 10° WSW 12:49:28 83° SSE 12:52:44 10° ENE daylight
21 Feb - 14:22:53 10° W 14:26:04 47° N 14:29:14 10° ENE daylight
21 Feb - 15:59:31 10° WNW 16:02:46 70° NNE 16:06:00 10° ESE daylight
21 Feb - 17:36:09 10° W 17:39:02 29° SW 17:41:54 10° SSE daylight
22 Feb - 10:20:03 10° SSE 10:20:47 11° SE 10:21:30 10° ESE daylight
22 Feb - 11:53:25 10° SW 11:56:37 54° SSE 11:59:48 10° ENE daylight
22 Feb - 13:29:54 10° W 13:33:06 52° N 13:36:18 10° ENE daylight
22 Feb - 15:06:37 10° WNW 15:09:50 55° N 15:13:02 10° E daylight
22 Feb - 16:43:07 10° WNW 16:46:16 47° SSW 16:49:24 10° SE daylight
23 Feb - 11:00:50 10° SSW 11:03:50 33° SE 11:06:48 10° E daylight
23 Feb - 12:36:54 10° W 12:40:08 65° NNW 12:43:23 10° ENE daylight
23 Feb - 14:13:40 10° WNW 14:16:51 48° N 14:20:01 10° E daylight
23 Feb - 15:50:10 10° WNW 15:53:25 75° SSW 15:56:40 10° ESE daylight
23 Feb - 17:27:23 10° W 17:29:26 16° SW 17:31:28 10° S daylight
